Regional Weather Roundup
Issued by NWS

Home | Current Version | Previous Version | Text Only | Print | Product List | Glossary Off
Versions: 1 2 3 4 5 6 7 8 9 10 11 12 13 14 15 16 17 18 19 20 21 22 23 24 25 26 27 28 29 30 31 32 33 34 35 36 37 38 39 40 41 42 43 44 45 46 47 48 49 50

017
ASUS43 KBIS 210802
RWRND

NORTH DAKOTA REGIONAL WEATHER ROUNDUP
NATIONAL WEATHER SERVICE BISMARCK ND
200 AM CST TUE FEB 21 2017

NOTE: "FAIR" INDICATES FEW OR NO CLOUDS BELOW 12,000 FEET WITH NO
SIGNIFICANT WEATHER AND/OR OBSTRUCTIONS TO VISIBILITY.


NDZ001>003-009>011-017-210900-
NORTHWEST NORTH DAKOTA

CITY           SKY/WX    TMP DP  RH WIND       PRES   REMARKS
WILLISTON      FAIR      36  31  82 CALM      29.63S
MINOT          CLOUDY    38  31  76 CALM      29.66F
MINOT AFB      CLOUDY    37  31  79 CALM      29.66S
$$

NDZ018>021-031>035-040>046-210900-
SOUTHWEST NORTH DAKOTA

CITY           SKY/WX    TMP DP  RH WIND       PRES   REMARKS
BISMARCK       CLOUDY    37  32  82 SE9       29.70F
DICKINSON      FAIR      38  26  62 CALM      29.63S
GARRISON         N/A     36  31  82 E3        29.65S
HETTINGER ARPT CLOUDY    35  26  69 W6        29.70R
$$

NDZ004>008-012>016-024-026-027-054-210900-
NORTHEAST NORTH DAKOTA

CITY           SKY/WX    TMP DP  RH WIND       PRES   REMARKS
GRAND FORKS    PTCLDY    31  27  85 SW8       29.73F
GRND FRKS AFB  PTCLDY    27  27 100 SW3       29.74R
DEVILS LAKE    CLOUDY    33  30  88 CALM      29.71F
$$

NDZ022-023-025-028>030-036>039-047>053-210900-
SOUTHEAST NORTH DAKOTA

CITY           SKY/WX    TMP DP  RH WIND       PRES   REMARKS
FARGO          CLEAR     34  32  92 S5        29.77S
JAMESTOWN      FAIR      31  30  96 CALM      29.73F
$$





USA.gov is the U.S. government's official web portal to all federal, state and local government web resources and services.